TimeCST,TemperatureF,Dew PointF,Humidity,Sea Level PressureIn,VisibilityMPH,Wind Direction,Wind SpeedMPH,Gust SpeedMPH,PrecipitationIn,Events,Conditions,WindDirDegrees,DateUTC
12:15 AM,33.8,33.8,100,29.60,0.2,East,3.5,-,N/A,Fog,Fog,80,2012-11-10 06:15:00
12:35 AM,32.0,32.0,100,29.61,1.0,South,3.5,-,N/A,,Overcast,180,2012-11-10 06:35:00
4:15 AM,44.6,35.6,71,29.57,10.0,SSW,12.7,18.4,N/A,,Clear,200,2012-11-10 10:15:00
4:35 AM,44.6,35.6,71,29.57,10.0,SW,9.2,-,N/A,,Clear,220,2012-11-10 10:35:00
4:55 AM,44.6,35.6,71,29.56,10.0,SSW,13.8,-,N/A,,Clear,210,2012-11-10 10:55:00
5:15 AM,44.6,35.6,71,29.56,10.0,SSW,11.5,-,N/A,,Clear,210,2012-11-10 11:15:00
6:35 AM,46.4,37.4,71,29.56,10.0,South,10.4,-,N/A,,Clear,190,2012-11-10 12:35:00
6:55 AM,48.2,41.0,76,29.56,10.0,South,8.1,-,N/A,,Clear,180,2012-11-10 12:55:00
7:15 AM,48.2,41.0,76,29.55,10.0,South,15.0,-,N/A,,Clear,170,2012-11-10 13:15:00
7:35 AM,51.8,42.8,71,29.54,10.0,South,17.3,23.0,N/A,,Clear,180,2012-11-10 13:35:00
7:55 AM,51.8,42.8,71,29.54,10.0,South,16.1,-,N/A,,Clear,170,2012-11-10 13:55:00
8:15 AM,51.8,42.8,71,29.54,10.0,SSE,17.3,-,N/A,,Clear,160,2012-11-10 14:15:00
8:35 AM,53.6,42.8,67,29.53,10.0,SSE,17.3,-,N/A,,Clear,160,2012-11-10 14:35:00
8:55 AM,57.2,44.6,63,29.52,10.0,South,18.4,25.3,N/A,,Clear,170,2012-11-10 14:55:00
9:15 AM,60.8,46.4,59,29.51,10.0,South,15.0,21.9,N/A,,Clear,180,2012-11-10 15:15:00
9:35 AM,62.6,46.4,55,29.50,10.0,South,23.0,31.1,N/A,,Clear,180,2012-11-10 15:35:00
9:55 AM,66.2,44.6,46,29.49,10.0,South,25.3,31.1,N/A,,Clear,190,2012-11-10 15:55:00
10:15 AM,68.0,44.6,43,29.49,7.0,South,25.3,35.7,N/A,,Clear,190,2012-11-10 16:15:00
10:35 AM,68.0,44.6,43,29.48,10.0,SSW,26.5,42.6,N/A,,Clear,200,2012-11-10 16:35:00
10:55 AM,69.8,42.8,38,29.47,10.0,SSW,29.9,40.3,N/A,,Clear,200,2012-11-10 16:55:00
11:15 AM,69.8,42.8,38,29.47,10.0,SSW,33.4,42.6,N/A,,Clear,200,2012-11-10 17:15:00
11:35 AM,71.6,42.8,35,29.46,10.0,SSW,27.6,39.1,N/A,,Clear,200,2012-11-10 17:35:00
11:55 AM,71.6,44.6,38,29.46,10.0,South,29.9,40.3,N/A,,Scattered Clouds,190,2012-11-10 17:55:00
12:15 PM,71.6,42.8,35,29.44,7.0,SSW,32.2,41.4,N/A,,Mostly Cloudy,200,2012-11-10 18:15:00
12:35 PM,73.4,37.4,27,29.43,2.5,SSW,39.1,50.6,N/A,,Haze,210,2012-11-10 18:35:00
12:55 PM,75.2,37.4,25,29.43,2.5,SSW,35.7,46.0,N/A,,Haze,210,2012-11-10 18:55:00
1:15 PM,75.2,37.4,25,29.42,3.0,SW,38.0,50.6,N/A,,Haze,220,2012-11-10 19:15:00
1:35 PM,75.2,37.4,25,29.42,2.5,SSW,34.5,54.1,N/A,,Haze,210,2012-11-10 19:35:00
1:55 PM,75.2,37.4,25,29.42,3.0,SSW,40.3,46.0,N/A,,Haze,210,2012-11-10 19:55:00
2:15 PM,75.2,37.4,25,29.42,4.0,SW,34.5,44.9,N/A,,Haze,230,2012-11-10 20:15:00
2:35 PM,73.4,37.4,27,29.42,7.0,SW,27.6,44.9,N/A,,Overcast,230,2012-11-10 20:35:00
2:55 PM,57.2,39.2,51,29.44,10.0,NW,20.7,-,N/A,,Mostly Cloudy,320,2012-11-10 20:55:00
3:15 PM,55.4,39.2,54,29.45,10.0,NNW,12.7,-,N/A,,Clear,330,2012-11-10 21:15:00
3:35 PM,55.4,39.2,54,29.47,10.0,NW,13.8,-,N/A,,Scattered Clouds,320,2012-11-10 21:35:00
3:55 PM,53.6,41.0,62,29.48,10.0,NW,12.7,-,N/A,,Mostly Cloudy,320,2012-11-10 21:55:00
4:15 PM,51.8,42.8,71,29.50,10.0,NNW,10.4,-,N/A,,Mostly Cloudy,340,2012-11-10 22:15:00
4:35 PM,50.0,44.6,82,29.57,7.0,West,17.3,-,N/A,Rain,Light Rain,280,2012-11-10 22:35:00
4:55 PM,46.4,44.6,93,29.53,5.0,NNW,12.7,-,N/A,Rain,Light Rain,330,2012-11-10 22:55:00
5:15 PM,46.4,44.6,93,29.52,4.0,North,11.5,-,N/A,,Clear,360,2012-11-10 23:15:00
5:35 PM,44.6,42.8,93,29.57,3.0,NW,16.1,21.9,N/A,,Scattered Clouds,310,2012-11-10 23:35:00
5:55 PM,44.6,42.8,93,29.57,4.0,NNW,15.0,19.6,N/A,,Mostly Cloudy,340,2012-11-10 23:55:00
6:15 PM,42.8,41.0,93,29.57,10.0,North,16.1,-,N/A,,Scattered Clouds,350,2012-11-11 00:15:00
6:35 PM,41.0,41.0,100,29.60,10.0,NNW,16.1,-,N/A,,Scattered Clouds,330,2012-11-11 00:35:00
6:55 PM,41.0,39.2,93,29.60,10.0,NNW,19.6,24.2,N/A,,Mostly Cloudy,330,2012-11-11 00:55:00
7:15 PM,41.0,39.2,93,29.66,10.0,NW,12.7,-,N/A,Rain,Light Rain,320,2012-11-11 01:15:00
7:35 PM,41.0,37.4,87,29.63,10.0,NNW,16.1,27.6,N/A,,Mostly Cloudy,340,2012-11-11 01:35:00
7:55 PM,39.2,37.4,93,29.64,10.0,NNW,13.8,17.3,N/A,,Overcast,340,2012-11-11 01:55:00
8:15 PM,37.4,35.6,93,29.64,10.0,NNW,16.1,25.3,N/A,,Mostly Cloudy,340,2012-11-11 02:15:00
8:35 PM,37.4,37.4,100,29.68,10.0,NW,20.7,-,N/A,,Mostly Cloudy,320,2012-11-11 02:35:00
8:55 PM,37.4,35.6,93,29.70,10.0,NNW,20.7,26.5,N/A,,Overcast,330,2012-11-11 02:55:00
9:15 PM,37.4,33.8,87,29.73,10.0,NNW,21.9,26.5,N/A,,Overcast,330,2012-11-11 03:15:00
9:35 PM,35.6,32.0,87,29.73,10.0,NNW,25.3,28.8,N/A,,Overcast,330,2012-11-11 03:35:00
9:55 PM,33.8,32.0,93,29.75,10.0,NNW,19.6,28.8,N/A,,Overcast,340,2012-11-11 03:55:00
10:15 PM,32.0,32.0,100,29.77,10.0,North,19.6,24.2,N/A,,Overcast,350,2012-11-11 04:15:00
10:55 PM,32.0,30.2,93,29.79,10.0,NNW,16.1,-,N/A,,Scattered Clouds,340,2012-11-11 04:55:00
11:15 PM,30.2,28.4,93,29.80,10.0,NNW,15.0,19.6,N/A,,Clear,340,2012-11-11 05:15:00
11:35 PM,30.2,28.4,93,29.80,10.0,North,19.6,23.0,N/A,,Clear,350,2012-11-11 05:35:00
11:55 PM,28.4,26.6,93,29.81,10.0,North,17.3,21.9,N/A,,Scattered Clouds,360,2012-11-11 05:55:00